Volver al catálogo

STARLINK-31892

ActivoComunicacionesVLEO
NORAD 59853·PAYLOAD·🇺🇸 United States

Lanzado May 23, 2024 desde Cape Canaveral Space Force Station

Loading…

Próximos Pases (próximas 24 horas)

TLE

ActualizadoSource: CelesTrak SupGP

Época: Sep 15, 2026, 03:16 UTC

1 59853C 24097U   26258.13659722 -.00004930  00000+0 -17855-3 0  2584
2 59853  42.9998 284.6842 0001248 264.9612 240.3824 15.27584287    15

Sigue STARLINK-31892 en tiempo real con AllMySat

Download on the App Store